DW8485 Weather Reports


Display with metric or nautical units.
time (UTC)temp
F
wind
direction
speed
MPH
gust
MPH
rain 1hr
in
rain 24hr
in
rain mn
in
humidity
%
barometer
mb
20260505173046 80 140 2.0 9.0 0.00 0.00 0.00 53 1017.7
20260505172045 80 157 2.0 3.0 0.00 0.00 0.00 52 1017.7
20260505171544 81 173 2.0 5.0 0.00 0.00 0.00 50 1017.7
20260505171046 81 215 5.0 8.0 0.00 0.00 0.00 49 1017.7
20260505170045 81 152 2.0 5.0 0.00 0.00 0.00 51 1017.7
20260505165545 80 140 2.0 3.0 0.00 0.00 0.00 50 1017.7
20260505165045 80 193 1.0 5.0 0.00 0.00 0.00 51 1017.7
20260505164544 80 136 2.0 3.0 0.00 0.00 0.00 52 1017.7
20260505164045 80 178 3.0 5.0 0.00 0.00 0.00 51 1017.7
20260505163544 80 146 2.0 5.0 0.00 0.00 0.00 52 1018.1
20260505163045 80 174 2.0 5.0 0.00 0.00 0.00 53 1018.1
20260505162544 80 205 3.0 5.0 0.00 0.00 0.00 56 1018.1
20260505162045 79 107 1.0 3.0 0.00 0.00 0.00 54 1018.1
20260505161544 79 107 1.0 7.0 0.00 0.00 0.00 54 1018.1
20260505161045 78 176 1.0 3.0 0.00 0.00 0.00 55 1018.1
20260505153045 74 295 2.0 7.0 0.00 0.00 0.00 62 1018.1
20260505152544 74 184 3.0 7.0 0.00 0.00 0.00 63 1018.1
20260505152045 73 171 1.0 2.0 0.00 0.00 0.00 62 1018.0
20260505151545 73 180 2.0 5.0 0.00 0.00 0.00 63 1017.7
20260505151045 73 198 2.0 6.0 0.00 0.00 0.00 65 1017.7
20260505150544 72 165 1.0 3.0 0.00 0.00 0.00 65 1017.7
20260505140544 67 340 2.0 6.0 0.00 0.00 0.00 80 1017.7
20260505124544 59 180 1.0 3.0 0.00 0.00 0.00 95 1017.6
20260505124045 58 132 0.0 0.0 0.00 0.00 0.00 95 1017.6
20260505123545 57 132 0.0 0.0 0.00 0.00 0.00 94 1017.6
20260505123045 56 132 0.0 0.0 0.00 0.00 0.00 94 1017.6
20260505122044 55 132 0.0 0.0 0.00 0.00 0.00 93 1017.6
20260505121543 54 132 0.0 0.0 0.00 0.00 0.00 93 1017.6
20260505120543 53 132 0.0 0.0 0.00 0.00 0.00 92 1017.6
20260505120043 53 132 0.0 0.0 0.00 0.00 0.00 92 1017.6
20260505115544 53 132 0.0 0.0 0.00 0.00 0.00 92 1017.4
20260505113045 52 132 0.0 0.0 0.00 0.00 0.00 90 1017.3
20260505112543 52 132 0.0 0.0 0.00 0.00 0.00 90 1017.1
20260505112045 52 132 0.0 0.0 0.00 0.00 0.00 90 1017.1
20260505111543 52 132 0.0 0.0 0.00 0.00 0.00 89 1017.1
20260505111044 51 132 0.0 0.0 0.00 0.00 0.00 89 1016.4
20260505110543 51 132 0.0 0.0 0.00 0.00 0.00 89 1016.4
20260505102045 52 134 0.0 0.0 0.00 0.00 0.00 88 1016.4
20260505100544 52 134 0.0 0.0 0.00 0.00 0.00 88 1016.4
20260505100044 52 134 0.0 0.0 0.00 0.00 0.00 88 1016.4
20260505095543 52 134 0.0 0.0 0.00 0.00 0.00 88 1016.4
20260505095044 52 134 0.0 0.0 0.00 0.00 0.00 88 1016.0
20260505094543 52 134 0.0 0.0 0.00 0.00 0.00 88 1016.0
20260505093044 53 134 0.0 0.0 0.00 0.00 0.00 88 1016.0
20260505092544 53 134 0.0 0.0 0.00 0.00 0.00 87 1016.0
20260505092044 53 134 0.0 0.0 0.00 0.00 0.00 87 1016.0
20260505091045 53 134 0.0 0.0 0.00 0.00 0.00 87 1016.0
20260505090544 53 134 0.0 0.0 0.00 0.00 0.00 87 1016.0
20260505090042 53 134 0.0 0.0 0.00 0.00 0.00 87 1016.0
20260505085544 53 134 0.0 0.0 0.00 0.00 0.00 87 1016.0
20260505085044 53 134 0.0 0.0 0.00 0.00 0.00 87 1016.0
20260505084544 53 134 0.0 0.0 0.00 0.00 0.00 87 1015.7
20260505084044 53 134 0.0 0.0 0.00 0.00 0.00 87 1015.7
20260505083544 53 134 0.0 0.0 0.00 0.00 0.00 87 1015.7
20260505083044 53 134 0.0 0.0 0.00 0.00 0.00 87 1015.7
20260505082543 54 134 0.0 0.0 0.00 0.00 0.00 87 1015.7
20260505082044 54 134 0.0 0.0 0.00 0.00 0.00 87 1015.7
20260505081543 54 134 0.0 0.0 0.00 0.00 0.00 87 1015.7
20260505081044 54 134 0.0 0.0 0.00 0.00 0.00 87 1015.7
20260505080043 54 134 0.0 0.0 0.00 0.00 0.00 86 1015.8
20260505075544 54 134 0.0 0.0 0.00 0.00 0.00 86 1015.8
20260505075044 54 134 0.0 0.0 0.00 0.00 0.00 86 1015.7
20260505074542 54 134 0.0 0.0 0.00 0.00 0.00 86 1015.7
20260505074044 54 134 0.0 0.0 0.00 0.00 0.00 86 1015.6
20260505073543 54 134 0.0 0.0 0.00 0.00 0.00 86 1015.6
20260505073045 54 134 0.0 0.0 0.00 0.00 0.00 86 1015.6
20260505072543 54 134 0.0 0.0 0.00 0.00 0.00 86 1015.6
20260505072044 54 134 0.0 0.0 0.00 0.00 0.00 86 1015.6
20260505071044 54 134 0.0 0.0 0.00 0.00 0.00 85 1016.4
20260505070544 54 134 0.0 0.0 0.00 0.00 0.00 85 1016.4
20260505070042 55 134 0.0 0.0 0.00 0.00 0.00 85 1016.4
20260505065542 55 134 0.0 0.0 0.00 0.00 0.00 85 1016.4
20260505065044 55 134 0.0 0.0 0.00 0.00 0.00 85 1016.4
20260505064543 55 134 0.0 0.0 0.00 0.00 0.00 85 1016.4
20260505064045 55 134 0.0 0.0 0.00 0.00 0.00 85 1016.4
20260505063044 55 134 0.0 0.0 0.00 0.00 0.00 85 1016.4
20260505062543 55 134 0.0 0.0 0.00 0.00 0.00 85 1016.4
20260505062044 55 134 0.0 0.0 0.00 0.00 0.00 85 1016.4
20260505061543 55 134 0.0 0.0 0.00 0.00 0.00 84 1016.4
20260505061044 55 134 0.0 0.0 0.00 0.00 0.00 84 1016.4
20260505060543 55 134 0.0 0.0 0.00 0.00 0.00 84 1016.4
20260505060042 55 134 0.0 0.0 0.00 0.00 0.00 84 1016.4
20260505055542 55 134 0.0 0.0 0.00 0.00 0.00 84 1016.9
20260505055044 55 134 0.0 0.0 0.00 0.00 0.00 84 1016.9
20260505054542 56 134 0.0 0.0 0.00 0.00 0.00 84 1016.9
20260505054044 56 134 0.0 0.0 0.00 0.00 0.00 84 1016.9
20260505053543 56 134 0.0 0.0 0.00 0.00 0.00 84 1016.9
20260505053043 56 134 0.0 0.0 0.00 0.00 0.00 83 1016.9
20260505052543 56 134 0.0 0.0 0.00 0.00 0.00 83 1016.9
20260505052044 56 134 0.0 0.0 0.00 0.00 0.00 83 1016.9
20260505051543 56 134 0.0 0.0 0.00 0.00 0.00 82 1016.9
20260505051044 56 134 0.0 0.0 0.00 0.00 0.00 82 1016.9
20260505050543 57 134 0.0 0.0 0.00 0.00 0.00 82 1016.9
20260505041542 58 134 0.0 0.0 0.00 0.00 0.00 78 1017.0
20260505040543 59 134 0.0 0.0 0.00 0.00 0.00 77 1017.0
20260505040042 59 134 0.0 0.0 0.00 0.00 0.00 76 1016.9
20260505035543 59 134 0.0 0.0 0.00 0.00 0.00 76 1016.9
20260505034542 60 134 0.0 0.0 0.00 0.00 0.00 75 1016.9
20260505034044 60 134 0.0 0.0 0.00 0.00 0.00 74 1016.9
20260505033043 60 134 0.0 0.0 0.00 0.00 0.00 74 1016.9
20260505032543 60 134 0.0 0.0 0.00 0.00 0.00 73 1016.9
20260505032043 61 134 0.0 0.0 0.00 0.00 0.00 73 1017.0
20260505031542 61 134 0.0 0.0 0.00 0.00 0.00 73 1017.0
20260505031043 61 134 0.0 0.0 0.00 0.00 0.00 72 1016.9
20260505030542 61 134 0.0 0.0 0.00 0.00 0.00 71 1016.9
20260505030043 62 134 0.0 0.0 0.00 0.00 0.00 71 1016.9
20260505025542 62 134 0.0 0.0 0.00 0.00 0.00 70 1016.9
20260505025044 62 134 0.0 0.0 0.00 0.00 0.00 70 1016.9
20260505024542 62 134 0.0 0.0 0.00 0.00 0.00 70 1016.9
20260505024044 63 134 0.0 0.0 0.00 0.00 0.00 69 1016.9
20260505023542 63 134 0.0 0.0 0.00 0.00 0.00 69 1016.9
20260505023043 63 134 0.0 0.0 0.00 0.00 0.00 68 1016.9
20260505022543 63 134 0.0 0.0 0.00 0.00 0.00 67 1016.9
20260505022044 64 134 0.0 0.0 0.00 0.00 0.00 67 1016.9
20260505021543 64 134 0.0 0.0 0.00 0.00 0.00 66 1016.9
20260505021044 64 134 0.0 0.0 0.00 0.00 0.00 66 1016.4
20260505020542 64 134 0.0 0.0 0.00 0.00 0.00 65 1016.4
20260505020042 64 134 0.0 0.0 0.00 0.00 0.00 65 1016.4
20260505015542 64 134 0.0 0.0 0.00 0.00 0.00 64 1016.4
20260505015044 65 134 0.0 1.0 0.00 0.00 0.00 63 1016.4
20260505014542 65 134 0.0 2.0 0.00 0.00 0.00 63 1016.4
20260505014043 65 134 0.0 2.0 0.00 0.00 0.00 62 1016.4
20260505013543 65 134 0.0 2.0 0.00 0.00 0.00 61 1016.4
20260505013043 66 136 0.0 1.0 0.00 0.00 0.00 61 1016.4
20260505012542 66 136 0.0 1.0 0.00 0.00 0.00 60 1016.4
20260505012043 66 136 1.0 1.0 0.00 0.00 0.00 59 1016.4
20260505011542 66 136 0.0 1.0 0.00 0.00 0.00 59 1016.4
20260505010542 67 136 0.0 0.0 0.00 0.00 0.00 57 1016.4
20260505010041 67 136 0.0 1.0 0.00 0.00 0.00 57 1016.4
20260505005542 67 136 0.0 0.0 0.00 0.00 0.00 57 1016.4
20260505005043 68 136 0.0 1.0 0.00 0.00 0.00 56 1016.2
20260505004542 68 136 0.0 1.0 0.00 0.00 0.00 55 1016.2
20260505004043 68 136 0.0 2.0 0.00 0.00 0.00 55 1016.2
20260505003543 68 136 1.0 2.0 0.00 0.00 0.00 55 1016.2
20260505002542 68 200 1.0 3.0 0.00 0.00 0.00 54 1016.2
20260505002042 69 205 2.0 3.0 0.00 0.00 0.00 53 1016.2
20260505001043 69 149 1.0 5.0 0.00 0.00 0.00 52 1016.2
20260505000542 69 121 2.0 6.0 0.00 0.00 0.00 52 1016.2
20260505000042 69 153 0.0 3.0 0.00 0.00 0.00 51 1016.2
20260504235542 70 153 2.0 3.0 0.00 0.00 0.00 50 1016.1
20260504235044 70 158 1.0 5.0 0.00 0.00 0.00 50 1016.1
20260504234043 70 180 1.0 6.0 0.00 0.00 0.00 48 1016.0
20260504233043 71 162 1.0 7.0 0.00 0.00 0.00 48 1016.0
20260504232542 71 202 1.0 6.0 0.00 0.00 0.00 47 1016.0
20260504232043 71 167 2.0 6.0 0.00 0.00 0.00 48 1016.0
20260504231543 71 185 3.0 10.0 0.00 0.00 0.00 48 1016.0
20260504231043 71 170 2.0 7.0 0.00 0.00 0.00 48 1016.0
20260504230542 71 178 3.0 7.0 0.00 0.00 0.00 48 1016.0
20260504230042 72 188 1.0 3.0 0.00 0.00 0.00 50 1016.0
20260504225542 72 201 2.0 6.0 0.00 0.00 0.00 50 1016.0
20260504225043 72 150 2.0 7.0 0.00 0.00 0.00 50 1016.0
20260504224043 72 183 3.0 8.0 0.00 0.00 0.00 49 1016.0
20260504223543 73 144 2.0 6.0 0.00 0.00 0.00 49 1016.0
20260504223043 73 211 2.0 9.0 0.00 0.00 0.00 49 1016.0
20260504222542 73 167 1.0 6.0 0.00 0.00 0.00 50 1016.0
20260504222044 73 198 2.0 6.0 0.00 0.00 0.00 50 1016.0
20260504221542 73 209 2.0 7.0 0.00 0.00 0.00 51 1016.0
20260504221043 73 174 1.0 3.0 0.00 0.00 0.00 51 1016.0
20260504220541 73 196 4.0 7.0 0.00 0.00 0.00 50 1016.0
20260504215542 74 149 2.0 8.0 0.00 0.00 0.00 51 1016.0
20260504215043 74 176 2.0 6.0 0.00 0.00 0.00 51 1016.0
20260504214043 74 162 3.0 7.0 0.00 0.00 0.00 50 1015.9
20260504213542 74 178 4.0 12.0 0.00 0.00 0.00 49 1015.9
20260504213044 75 186 2.0 6.0 0.00 0.00 0.00 49 1015.9
20260504212542 75 158 3.0 6.0 0.00 0.00 0.00 48 1015.9
20260504212043 75 138 3.0 6.0 0.00 0.00 0.00 48 1015.9
20260504211541 76 137 2.0 8.0 0.00 0.00 0.00 46 1015.9
20260504211043 76 208 2.0 8.0 0.00 0.00 0.00 46 1015.9
20260504210542 77 193 4.0 12.0 0.00 0.00 0.00 45 1015.9
20260504210041 77 97 2.0 8.0 0.00 0.00 0.00 44 1015.9
20260504205542 78 163 2.0 12.0 0.00 0.00 0.00 45 1015.9
20260504205043 78 149 5.0 10.0 0.00 0.00 0.00 42 1015.9
20260504204542 79 177 3.0 10.0 0.00 0.00 0.00 43 1015.9
20260504204043 79 140 2.0 6.0 0.00 0.00 0.00 42 1015.9
20260504203542 80 182 3.0 8.0 0.00 0.00 0.00 42 1015.9
20260504203042 80 200 2.0 7.0 0.00 0.00 0.00 42 1016.0
20260504202542 80 177 2.0 10.0 0.00 0.00 0.00 43 1016.0
20260504202043 80 177 2.0 7.0 0.00 0.00 0.00 42 1016.2
20260504201541 80 148 3.0 9.0 0.00 0.00 0.00 43 1016.2
20260504201043 80 131 3.0 10.0 0.00 0.00 0.00 42 1016.2
20260504200542 80 171 3.0 7.0 0.00 0.00 0.00 41 1016.2
20260504200042 80 176 3.0 6.0 0.00 0.00 0.00 43 1016.2
20260504195542 80 212 5.0 10.0 0.00 0.00 0.00 41 1016.2
20260504195043 81 191 2.0 8.0 0.00 0.00 0.00 42 1016.2
20260504194542 81 208 4.0 8.0 0.00 0.00 0.00 40 1016.3
20260504194043 81 144 2.0 7.0 0.00 0.00 0.00 43 1016.3
20260504193542 80 159 2.0 7.0 0.00 0.00 0.00 43 1016.5
20260504193043 81 155 3.0 9.0 0.00 0.00 0.00 43 1016.5
20260504192541 80 134 3.0 7.0 0.00 0.00 0.00 42 1016.5
20260504192043 81 127 1.0 8.0 0.00 0.00 0.00 44 1016.5
20260504191542 81 138 2.0 8.0 0.00 0.00 0.00 43 1016.5
20260504184042 82 181 2.0 6.0 0.00 0.00 0.00 39 1017.0
20260504183043 81 212 2.0 6.0 0.00 0.00 0.00 39 1017.0
20260504182542 81 350 3.0 6.0 0.00 0.00 0.00 36 1017.0
20260504182043 81 103 1.0 3.0 0.00 0.00 0.00 38 1017.0
20260504181042 81 175 1.0 5.0 0.00 0.00 0.00 39 1017.0
20260504180541 81 134 3.0 5.0 0.00 0.00 0.00 37 1017.1
20260504180041 81 178 1.0 5.0 0.00 0.00 0.00 35 1017.1
20260504175542 81 175 4.0 8.0 0.00 0.00 0.00 37 1017.1
20260504175043 81 230 2.0 5.0 0.00 0.00 0.00 38 1017.1
20260504174542 80 33 2.0 3.0 0.00 0.00 0.00 39 1017.1
20260504174043 80 147 1.0 5.0 0.00 0.00 0.00 40 1017.1
20260504173541 80 202 2.0 5.0 0.00 0.00 0.00 38 1017.8